Molokai, HI

11:39 AM HST on June 22, 2017 (GMT -1000)
Molokai

Weather History for PHMK - January, 2012

Change the Weather History Date:

Monday, January 2, 2012

  Actual Average Record
Temperature  
Mean Temperature 70 °F -  
Max Temperature 80 °F 77 °F 88 °F (1989)
Min Temperature 61 °F 64 °F 55 °F (1973)
Cooling Degree Days 6    
Growing Degree Days 20 (Base 50)    
Moisture  
Dew Point 63 °F    
Average Humidity 75    
Maximum Humidity 93    
Minimum Humidity 58    
Precipitation  
Precipitation 0.00 in - - ()
Sea Level Pressure  
Sea Level Pressure 30.10 in    
Wind  
Wind Speed 2 mph (North)    
Max Wind Speed 9 mph    
Max Gust Speed -    
Visibility 10 miles    
Events      
Averages and records for this station are not official NWS values.
T = Trace of Precipitation, MM = Missing Value Source: NWS Daily Summary

Daily Weather History Graph

Daily Weather History Graph

Search for Another Location

Airport or City:

Trip Planner

Search our weather history database for the weather conditions in past years. The results will help you decide how hot, cold, wet, or windy it might be!

Date:

Astronomy

Jan. 02, 2012 Rise Set
Actual Time 7:06 AM HST 5:58 PM HST
Civil Twilight 6:41 AM HST 6:22 PM HST
Nautical Twilight 6:14 AM HST 6:50 PM HST
Astronomical Twilight 5:47 AM HST 7:17 PM HST
Moon 1:05 PM HST (1/2) 1:28 AM HST (1/2)
Length of Visible Light 11h 41m
Length of Day
10h 52m
Waxing Gibbous, 65% of the Moon is Illuminated
Jan 2
Waxing Gibbous
Jan 8
Full
Jan 15
Last Quarter
Jan 22
New
Jan 30
First Quarter

Hourly Weather History & Observations

Time (HST) Temp. Heat Index Dew Point Humidity Pressure Visibility Wind Dir Wind Speed Gust Speed Precip Events Conditions
12:54 AM - - - N/A% 30.07 in 10.0 mi Calm Calm - N/A   Clear
1:54 AM - - - N/A% 30.06 in 10.0 mi Calm Calm - N/A   Clear
2:54 AM - - - N/A% 30.04 in 10.0 mi ENE 4.6 mph - N/A   Clear
3:54 AM 63.0 °F - 60.1 °F 90% 30.06 in 10.0 mi Calm Calm - N/A   Clear
4:54 AM 63.0 °F - 61.0 °F 93% 30.07 in 10.0 mi Calm Calm - N/A   Clear
5:54 AM 62.1 °F - 60.1 °F 93% 30.09 in 10.0 mi Calm Calm - N/A   Clear
6:54 AM 61.0 °F - 59.0 °F 93% 30.10 in 10.0 mi Calm Calm - N/A   Clear
7:54 AM 66.0 °F - 63.0 °F 90% 30.12 in 10.0 mi Calm Calm - N/A   Clear
8:54 AM 73.0 °F - 66.0 °F 79% 30.14 in 10.0 mi Calm Calm - N/A   Clear
9:54 AM 75.9 °F - 63.0 °F 64% 30.13 in 10.0 mi Calm Calm - N/A   Clear
10:54 AM 78.1 °F - 62.1 °F 58% 30.12 in 10.0 mi Variable 4.6 mph - N/A   Clear
11:54 AM 79.0 °F - 64.0 °F 60% 30.10 in 10.0 mi North 9.2 mph - N/A   Clear
12:54 PM 78.1 °F - 66.0 °F 66% 30.07 in 10.0 mi NNW 8.1 mph - N/A   Clear
1:54 PM 80.1 °F 81.9 °F 64.9 °F 60% 30.05 in 10.0 mi NW 8.1 mph - N/A   Clear
2:54 PM 78.1 °F - 64.9 °F 64% 30.05 in 10.0 mi NW 9.2 mph - N/A   Clear
3:54 PM 78.1 °F - 64.9 °F 64% 30.07 in 10.0 mi North 9.2 mph - N/A   Clear
4:54 PM 75.0 °F - 66.0 °F 73% 30.09 in 10.0 mi NNW 9.2 mph - N/A   Clear
5:54 PM 72.0 °F - 66.0 °F 81% 30.12 in 10.0 mi North 4.6 mph - N/A   Clear
6:54 PM - - - N/A% 30.12 in 10.0 mi North 3.5 mph - N/A   Partly Cloudy
7:54 PM - - - N/A% 30.13 in 9.0 mi North 3.5 mph - N/A   Clear
8:54 PM - - - N/A% 30.12 in 9.0 mi North 4.6 mph - N/A   Clear
9:35 PM - - - N/A% 30.12 in 9.0 mi ENE 3.5 mph - N/A   Partly Cloudy
9:54 PM - - - N/A% 30.12 in 10.0 mi Calm Calm - N/A   Clear
10:54 PM - - - N/A% 30.12 in 10.0 mi Calm Calm - N/A   Clear
11:54 PM - - - N/A% 30.12 in 8.0 mi North 3.5 mph - N/A   Clear